Flag for Brazil Weather past 2 weeks in Santarém, Pará, Brazil

Now
86 °F

Passing clouds.


Feels Like: 95 °F
Forecast: 75 / 87 °F
Wind: 15 mph from East

Location: Santarem-Aeroporto

Current Time: Jul 31, 2015 at 3:35:28 PM

Latest Report: Jul 31, 2015 at 3:00 PM


Visibility: N/A

Pressure: 29.86 "Hg

Humidity: 70%

Dew point: 75 °F

Location of SantarémLocation

Historic Weather in Santarém — Graph

°F

Santarém temperature yesterday

Maximum temperature yesterday: 88 °F (at 2:00 PM)
Minimum temperature yesterday: 75 °F (at 1:00 AM)
Average temperature yesterday: 80 °F

Past Weeks' High & Low Weather Summary

 TemperatureHumidityPressure
High90 °F (Jul 16, 2:00 PM)100% (Jul 17, 12:00 AM)30.01 "Hg (Jul 17, 12:00 AM)
Low37 °F (Jul 26, 5:00 AM)24% (Jul 30, 5:00 AM)29.80 "Hg (Jul 16, 5:00 PM)
Average79 °F87%29.91 "Hg
* Reported Jul 16 2:00 PM — Jul 31 2:00 PM, Santarém, Weather by CustomWeather, © 2015

Note: Actual official high and low records may vary slightly from our data, if they occured in-between our weather recording intervals... More about our weather records

Advertising

Santarém weather history for previous 24 hours

 ConditionsComfort  
Time TempWeatherWind HumidityBarometerVisibility
2:00 PM
Fri, Jul 31
86 °FScattered clouds.12 mph70%29.89 "HgN/A
1:00 PM86 °FScattered clouds.14 mph70%29.95 "HgN/A
12:00 PM86 °FScattered clouds.5 mph70%29.95 "HgN/A
11:00 AM84 °FScattered clouds.9 mph74%29.98 "HgN/A
10:00 AM82 °FScattered clouds.14 mph84%29.98 "HgN/A
9:00 AM81 °FPassing clouds.12 mph84%29.95 "HgN/A
8:00 AM81 °FBroken clouds.12 mph84%29.95 "HgN/A
7:00 AM79 °FPassing clouds.9 mph89%29.92 "HgN/A
6:00 AM75 °FPassing clouds.1 mph94%29.92 "HgN/A
5:00 AM75 °FPassing clouds.2 mph94%29.89 "HgN/A
4:00 AM75 °FPassing clouds.3 mph94%29.89 "HgN/A
3:00 AM75 °FPassing clouds.3 mph94%29.89 "HgN/A
2:00 AM75 °FPassing clouds.3 mph94%29.92 "HgN/A
1:00 AM77 °FPassing clouds.6 mph89%29.92 "HgN/A
12:00 AM77 °FThundershowers. Passing clouds.No wind94%N/AN/A
11:00 PM
Thu, Jul 30
77 °FThundershowers. Passing clouds.No wind94%29.95 "HgN/A
10:00 PM77 °FThundershowers. Passing clouds.3 mph94%29.92 "HgN/A
9:00 PM77 °FThundershowers. Passing clouds.1 mph94%29.89 "HgN/A
8:00 PM77 °FPassing clouds.No wind94%29.89 "HgN/A
7:00 PM79 °FPassing clouds.No wind94%29.86 "HgN/A
6:00 PM82 °FBroken clouds.No wind84%29.83 "HgN/A
5:00 PM84 °FBroken clouds.5 mph74%29.83 "HgN/A
4:00 PM84 °FBroken clouds.7 mph74%29.86 "HgN/A
3:00 PM86 °FPassing clouds.13 mph70%29.89 "HgN/A
Weather by CustomWeather, © 2015

See weather overviewHow to use our weather pages